Location: Madrid
(40.4000°N, 3.6830°W)
Time: 04:15:34
(UTC+01:00)

ISS - Pass Details

Date: 11 November 2019
Orbit: 412 x 421 km, 51.6° (Epoch: 12 November)

Event Time Altitude Azimuth Distance (km) Brightness Sun altitude
Exits shadow 07:20:35 - 288° (WNW) 1,554 -1.6 -7.1°
Reaches altitude 10° 07:20:44 10° 287° (WNW) 1,501 -1.7 -7.1°
Maximum altitude 07:23:41 28° 225° (SW) 808 -2.6 -6.6°
Drops below altitude 10° 07:26:37 10° 164° (SSE) 1,489 -0.5 -6.0°
Sets 07:28:52 0° 153° (SSE) 2,347 0.8 -5.6°
